STARLINK-30184, 57310

Orbit data source: Space-Track

STARLINK-30184, 57310 is a payload satellite owned by SpaceX/Seattle (US) in LEO that was launched on Mon, 10 Jul 2023 UTC via an FALCON 9 launch vehicle from the Air Force Eastern Test Range (AFETR). Payload-class satellites include a variety of spacecraft equipped with specific instruments for various scientific and technological missions. These include communications satellites like Starlink; space stations such as the ISS; scientific satellites like the Hubble; Earth observation satellites from companies like Planet Labs, Umbra, and HawkEye 360; GPS; miniature CubeSats for education and research; and military/defense satellites.

Loading next visibility...
Identifier
57310, 2023-096W
Orbit
LEO
Country
Flag of USUS
Related business
Manufacturer
SpaceX/Seattle
Mission
Operational Commercial Communications
Bus & Motor
STARLINK V2M, Unknown motor
Mass
730 kg wet, ~700 kg dry
Launch date (UTC)
2023-07-10 (3 years ago)
Launch vehicle
FALCON 9
Launch site
Air Force Eastern Test Range (AFETR)
Object type
Payload
Rocket body
Debris
Shape & HBR
Box + 2 Pan, 17.7 m
Radar Cross Section
33.884 m², Large (>1 m²)

Expand to show TLE details & history
Last TLE update: 6 hours ago

TLE from 6 hours ago
0 STARLINK-30184
1 57310U 23096W   26236.62084235  .00000263  00000-0  19082-4 0  9990
2 57310  43.0028 326.0825 0001291 272.0820  87.9884 15.27578528172739
Epoch: 2026-08-24T14:54Z
TLE epoch observation values (Epoch: 2026-08-24T14:54:00.779Z)
Latitude
0.00001°
Longitude
129.67934°
Altitude
482.798 km
Speed
7.626 km/s
True Right ascension
21h 44m 19s
True Declination
0° 00' 00"
Sunlit
Object was in full shadow at epoch
Visualization orbit readout
Latitude
Unknown
Longitude
Unknown
Altitude
Unknown
Speed
Unknown
Apparent Right ascension
Unknown
Apparent Declination
Unknown
Sunlit
N/A
Visualization observer readout
Local Sidereal Time
11:43:02
Azimuth
Unknown
Elevation
Unknown
Doppler factor
Unknown
Orbital elements
Apogee altitude
485.884 km
Perigee altitude
484.112 km
Semi-major axis
6,863.135 km
Eccentricity
0.00013
Inclination
43.0028°
RAAN
326.0825°
Arg. of periapsis
272.082°
True anomaly
88.00318°
Mean anomaly
87.9884°
Eccentric anomaly
87.99579°
Mean motion
3.81733 °/min
Orbital period
94.31 mins
BSTAR
0.000019082
Loading maneuver chart data...
Computing Atmospheric mass density...

Documentation

Showing up to 5 results
|